Regional Weather Roundup
Issued by NWS

Home | Current Version | Previous Version | Graphics & Text | Print | Product List | Glossary On
Versions: 1 2 3 4 5 6 7 8 9 10 11 12 13 14 15 16 17 18 19 20 21 22 23 24 25 26 27 28 29 30 31 32 33 34 35 36 37 38 39 40 41 42 43 44 45 46 47 48 49 50
000
ASUS43 KDMX 312207
RWRIA

WEATHER ROUNDUP FOR IOWA
NATIONAL WEATHER SERVICE DES MOINES IA
500 PM CDT FRI JUL 31 2015

NOTE: "FAIR" INDICATES FEW OR NO CLOUDS BELOW 12,000 FEET WITH NO
SIGNIFICANT WEATHER AND/OR OBSTRUCTIONS TO VISIBILITY.

* - THESE STATIONS ARE NOT NWS STATIONS...THUS NOT UNDER NWS
QUALITY CONTROL.  THEY ALSO DO NOT REPORT WEATHER SUCH
AS PRECIPITATION OR FOG.

IAZ001>003-012>014-020>022-031>034-043>046-312300-
   NORTHWEST IOWA

CITY           SKY/WX    TMP DP  RH WIND       PRES   REMARKS
CARROLL *      SUNNY     82  66  57 VRB6      30.08S HX  85
CHEROKEE *     SUNNY     84  59  42 S3        30.08S HX  84
DENISON *      MOSUNNY   84  72  65 CALM      30.05F HX  89
LE MARS *      SUNNY     82  61  47 SE5       30.09S HX  83
ORANGE CITY *  SUNNY     82  57  42 SE3       30.09S HX  82
SHELDON *      SUNNY     82  61  47 CALM      30.08S HX  83
SIOUX CITY     PTSUNNY   87  70  56 E7        30.05F HX  92
SPENCER        SUNNY     85  54  34 MISG      30.08F HX  83
STORM LAKE *   SUNNY     81  59  47 SE5       30.10S HX  81
$$

IAZ055>058-069>071-079>083-090>094-312300-
   SOUTHWEST IOWA

CITY           SKY/WX    TMP DP  RH WIND       PRES   REMARKS
ATLANTIC *     SUNNY     86  75  70 VRB6      30.06S HX  95
AUDUBON *      SUNNY     88  72  58 NE3       30.08F HX  94
CLARINDA *     MOSUNNY   86  77  74 SW5       30.07S HX  97
COUNCIL BLFS * SUNNY     86  75  70 CALM      30.06F HX  95
CRESTON *      MOSUNNY   86  72  62 N5        30.07F HX  92
HARLAN  *      SUNNY     86  79  79 NE6       30.09F HX  99
LAMONI         SUNNY     87  71  58 NW6       30.07F HX  93
RED OAK *      SUNNY     86  75  70 W3        30.05F HX  95
SHENANDOAH *   MOSUNNY   86  77  74 SW5       30.05F HX  97
$$

IAZ047>049-059>061-072>074-084-312300-
   CENTRAL IOWA

CITY           SKY/WX    TMP DP  RH WIND       PRES   REMARKS
AMES           SUNNY     84  64  50 NW8       30.06F HX  85
ANKENY *       CLOUDY    82  66  57 CALM      30.06S HX  85
CHARITON *     MOSUNNY   86  70  58 N6        30.06F HX  90
DES MOINES     PTSUNNY   87  65  47 NE6       30.05F HX  89
GRINNELL*      MOSUNNY   81  64  57 NW6       30.07F HX  82
KNOXVILLE *    SUNNY     84  64  51 N5G13     30.05S HX  86
MARSHALLTOWN   SUNNY     83  62  49 N8        30.06F HX  84
PELLA *        SUNNY     86  72  62 NW5       30.06F HX  92
PERRY *          N/A     86  66  51 NE5       30.07S HX  88
$$

IAZ004>006-015-016-023>025-035-036-312300-
   NORTH CENTRAL IOWA

CITY           SKY/WX    TMP DP  RH WIND       PRES   REMARKS
ALGONA *       SUNNY     82  54  36 NW7       30.08F HX  81
CLARION *      SUNNY     82  59  44 NW8       30.07F HX  82
ESTHERVILLE    SUNNY     82  54  37 N8        30.08F HX  81
FORT DODGE *   SUNNY     82  61  47 NE5       30.09S HX  83
MASON CITY     SUNNY     82  58  43 NW14      30.07F HX  82
FOREST CITY *  SUNNY     79  55  44 NW8G18    30.07F
IOWA FALLS *     N/A     82  57  42 NW7       30.08F HX  82
$$

IAZ007>011-017>019-026>030-037>042-050>054-066-312300-
   NORTHEAST IOWA

CITY           SKY/WX    TMP DP  RH WIND       PRES   REMARKS
CEDAR RAPIDS   SUNNY     82  60  47 NW12      30.04F HX  82
CHARLES CITY * SUNNY     79  59  50 NW13      30.06F HX  80
CLINTON *      SUNNY     82  57  42 NW14      30.03F HX  82
DECORAH *      SUNNY     79  54  41 NW15G21   30.02F
DUBUQUE        SUNNY     81  55  40 NW15G25   30.02F HX  81
MONTICELLO *   SUNNY     82  54  36 NW16G25   30.02F HX  81
OELWEIN *      SUNNY     81  55  41 NW15G23   30.05F HX  80
WATERLOO       SUNNY     82  59  45 NW10      30.03F HX  82
$$

IAZ064-065-067-068-078-312300-
   EAST CENTRAL IOWA

CITY           SKY/WX    TMP DP  RH WIND       PRES   REMARKS
DAVENPORT      MOSUNNY   83  59  44 NW12      30.02F HX  83
IOWA CITY      SUNNY     85  60  42 NW15      30.04F HX  85
MT. PLEASANT * SUNNY     90  55  31 NW7       30.04S HX  88
MUSCATINE *    SUNNY     88  61  40 NW13      30.02F HX  88
QUAD CITIES    SUNNY     87  53  31 NW16G25   30.01S HX  85
$$

IAZ062-063-075>077-085>089-095>099-312300-
   SOUTHEAST IOWA

CITY           SKY/WX    TMP DP  RH WIND       PRES   REMARKS
BURLINGTON     SUNNY     86  65  49 NW7       30.03F HX  88
FAIRFIELD *    SUNNY     84  64  51 NW8       30.05F HX  86
FORT MADISON * SUNNY     84  70  61 NW5       30.04F HX  88
KEOKUK *       MOSUNNY   88  68  51 N7G15     30.02F HX  91
OSKALOOSA *      N/A     84  64  51 NW6       30.05F HX  86
CENTERVILLE *  MOSUNNY   86  72  62 NW7       30.07F HX  92
OTTUMWA        SUNNY     85  69  58 NW8       30.04F HX  89
WASHINGTON *   SUNNY     86  66  51 NW7       30.05F HX  88
$$

ABBREVIATIONS USED IN REMARKS
   TC - TEMPERATURES IN CELSIUS
  WCI - WIND CHILL INDEX
   HX - HEAT INDEX
  VSB - VISIBILITY
$$



USA.gov is the U.S. government's official web portal to all federal, state and local government web resources and services.